This is the latest recevied weather packets stored in our database for station/object KI4MRC. If no packets are shown the sender has not sent any weather packets the latest 10 day(s).
| Time | Temp. | Humidity | Pressure | Rain* | Wind** | Luminosity | Snow |
|---|---|---|---|---|---|---|---|
| 1777723496 | 23.89° C | 93% | 1011.7 hPa | 0 mm | - | 108 W/m² | - |
| 1777723193 | 23.33° C | 95% | 1011.6 hPa | 0 mm | - | 91 W/m² | - |
| 1777721980 | 22.78° C | 96% | 1011.9 hPa | 0 mm | - | 52 W/m² | - |
| 1777721678 | 22.22° C | 96% | 1011.7 hPa | 0 mm | - | 42 W/m² | - |
| 1777721377 | 22.22° C | 96% | 1011.7 hPa | 0 mm | - | 38 W/m² | - |
| 1777721074 | 22.22° C | 96% | 1011.7 hPa | 0 mm | - | 37 W/m² | - |
| 1777720771 | 22.22° C | 97% | 1011.9 hPa | 0 mm | - | 33 W/m² | - |
| 1777720468 | 21.67° C | 97% | 1011.8 hPa | 0 mm | - | 26 W/m² | - |
| 1777720165 | 21.67° C | 97% | 1011.7 hPa | 0 mm | - | 22 W/m² | - |
| 1777719863 | 21.67° C | 96% | 1011.7 hPa | 0 mm | - | 15 W/m² | - |
| 1777719560 | 21.67° C | 96% | 1011.7 hPa | 0 mm | - | 11 W/m² | - |
| 1777719257 | 21.67° C | 96% | 1011.7 hPa | 0 mm | - | 6 W/m² | - |
| 1777718955 | 21.67° C | 96% | 1011.6 hPa | 0 mm | - | 4 W/m² | - |
| 1777718652 | 21.67° C | 96% | 1011.7 hPa | 0 mm | - | 2 W/m² | - |
| 1777718349 | 21.67° C | 96% | 1011.6 hPa | 0 mm | - | 1 W/m² | - |
| 1777718047 | 21.67° C | 96% | 1011.6 hPa | 0 mm | - | 1 W/m² | - |
| 1777717744 | 21.67° C | 96% | 1011.4 hPa | 0 mm | - | 0 W/m² | - |
| 1777717440 | 21.67° C | 95% | 1011.5 hPa | 0 mm | - | 0 W/m² | - |
| 1777717138 | 21.67° C | 95% | 1011.5 hPa | 0 mm | - | 0 W/m² | - |
| 1777716836 | 21.67° C | 95% | 1011.5 hPa | 0 mm | - | 0 W/m² | - |
| 1777716534 | 21.67° C | 95% | 1011.4 hPa | 0 mm | - | 0 W/m² | - |
| 1777716233 | 21.67° C | 95% | 1011.6 hPa | 0 mm | - | 0 W/m² | - |
| 1777715930 | 21.67° C | 95% | 1011.5 hPa | 0 mm | - | 0 W/m² | - |
| 1777715628 | 21.67° C | 95% | 1011.6 hPa | 0 mm | - | 0 W/m² | - |
| 1777715326 | 21.67° C | 95% | 1011.6 hPa | 0 mm | - | 0 W/m² | - |
* Rain latest hour (hover to see other rain measurements)
** Current wind speed in m/s (hover to see current wind gust speed)